SCP
0 0 0 0 0 0 0 0 0 0 0 0 0 0 1 0 0 1 0 0 0 0 0 0 0 0 0 0 0 0 0 0 0 0 0 0 0 0 0 0 0 0 0
0 0 0 0 0 0 0 0 0 0 0 1 0 0 1 0 0 0 0 0 0 0 0 0 0 0 0 0 0 0 0 0 0 0 0 0 0 0 0 0 0 0 0
0 0 0 0 0 0 0 0 0 0 0 0 0 0 0 0 0 0 0 0 0 0 0 0 0 0 0 0 0 0 0 0 0 0 0 0 0 0 0 0 0 0 0
0 0 0 0 0 0 0 0 0 0 0 0 0 0 0 0 0 0 0 0 0 0 0 0 0 0 0 0 0 0 0 0 0 0 0 0 0 0 0 0 0 0 0
0 0 0 0 0 0 -0 0 0 0 0 0 0 0 0 0 0 0 0 0 0 0 0 0 0 0 0 0 0 0 0 0 0 0 0 0 0 0 0 0 0 0 0
0 0 0 0 0 0 0 0 0 0 0 0 0 0 0 0 0 0 0 0 0 0 0 0 0 0 0 0 0 0 0 0 0 0 0 0 0 0 0 0 0 0 0
0 0 0 0 -0 -0 0 0 0 0 0 0 0 0 0 0 0 0 0 0 0 0 0 0 0 0 0 0 0 0 0 0 0 0 0 0 0 0 0 0 0 0 0
0 0 0 0 0 0 0 0 0 0 0 0 0 0 0 0 0 0 0 0 0 0 0 0 0 0 0 0 0 0 0 0 0 0 0 0 -0 -0 -0 0 0 0 0
0 0 0 0 0 0 0 0 0 0 0 0 0 0 0 0 0 0 0 0 0 0 0 0 0 0 0 0 0 0 0 0 0 0 0 -0 0 0 -0 -0 0 0 0
0 0 0 0 0 0 0 0 0 0 0 0 0 0 0 0 0 0 0 0 0 0 0 0 0 0 0 0 0 0 0 0 -0 0 -0 -0 -0 -0 -0 -0 0 0 0
0 0 0 0 0 0 0 0 0 0 0 0 0 0 0 0 0 0 0 0 0 0 0 0 0 0 0 0 0 0 0 0 0 -0 -0 0 -0 0 -0 0 0 0 0
0 0 -0 0 0 0 0 0 0 0 0 0 0 0 0 0 0 0 0 0 0 0 0 0 0 0 0 0 0 0 0 0 -0 -0 -0 -0 -0 0 0 0 0 0 0
0 0 0 0 0 0 -0 -0 0 0 0 -0 -0 0 0 0 0 0 0 0 0 0 0 0 0 0 0 0 0 0 0 -0 -0 -0 -0 -0 -0 0 0 0 0 0 0
0 0 0 0 -0 -0 -0 0 0 0 -0 -0 0 0 0 0 0 0 0 0 0 0 0 0 0 0 0 0 0 0 0 0 0 -0 -0 -0 0 -0 0 0 0 0 0
0 0 0 -0 -0 -0 -0 0 -0 -0 -0 -0 0 0 0 0 0 0 0 0 0 0 0 0 -0 -0 0 0 0 0 0 0 0 0 -0 -0 -0 0 0 0 0 0 0
0 0 0 -0 -0 -0 -0 -0 -0 -0 -0 -0 0 0 0 0 0 0 0 0 0 0 0 0 -0 -0 -0 0 -0 0 0 0 0 0 -0 0 0 0 0 0 0 0 0
0 0 0 -0 -0 -0 -0 -0 -0 -0 -0 -0 0 -0 -0 -0 -0 -0 -0 0 0 0 0 -0 -0 -0 -0 0 -0 -0 0 0 0 -0 -0 -0 0 0 0 0 0 0 0
0 0 0 -0 -0 -0 -0 -0 -0 -0 -0 -0 -0 -0 -0 -0 -0 -0 0 0 0 0 0 0 -0 0 -0 0 -0 -0 0 0 0 0 -0 -0 -0 0 0 0 0 0 0
0 0 0 0 0 -0 -0 -0 -0 0 0 0 -0 -0 -0 -0 -0 0 -0 0 0 0 0 0 0 0 -0 -0 -0 -0 0 0 0 0 0 -0 -0 0 0 0 0 0 0
0 0 0 0 -0 -0 -0 -0 0 0 0 0 -0 -0 -0 -0 -0 -0 -0 -0 0 0 0 0 0 -0 0 0 -0 0 0 0 0 0 0 0 0 0 0 0 0 0 0
0 0 0 0 0 -0 -0 -0 0 0 0 0 -0 -0 -0 -0 -0 -0 -0 0 0 0 0 0 0 0 0 -0 -0 -0 0 0 0 0 -0 0 0 0 0 0 0 0 0
0 0 0 -0 -0 0 -0 -0 0 -0 -0 0 -0 -0 -0 -0 -0 -0 0 -0 0 0 0 0 0 0 0 0 -0 -0 -0 -0 0 0 -0 -0 0 0 -0 0 0 0 0
0 0 0 0 0 -0 -0 0 -0 0 0 -0 0 0 -0 0 0 -0 -0 0 0 0 0 0 0 0 0 0 -0 0 -0 -0 0 0 -0 0 0 -0 -0 0 0 -0 0
0 0 0 0 0 0 0 0 0 0 -0 -0 0 -0 0 0 0 0 0 0 0 0 0 0 0 0 0 0 0 0 0 0 0 0 0 0 0 -0 -0 -0 -0 -0 -0
0 0 0 0 0 0 0 0 0 0 0 0 0 0 0 0 0 0 0 0 0 0 0 0 0 0 0 -0 0 0 0 0 0 0 0 0 0 -0 -0 -0 -0 -0 0
0 0 0 0 0 0 0 0 0 0 0 0 0 0 0 0 0 0 0 0 0 -0 0 0 0 0 -0 0 0 0 0 0 0 0 0 -0 -0 -0 -0 -0 -0 -0 -0
Wind_Speed_500mb
89 91 86 79 66 65 63 50 54 52 51 55 61 67 71 73 73 70 56 47 40 37 43 47 45 29 33 29 27 29 36 37 35 38 38 36 34 36 37 35 34 32 29
85 83 78 67 70 66 56 55 52 49 50 58 61 64 63 71 71 48 39 34 37 40 34 30 35 32 32 30 30 32 35 36 33 31 29 19 22 33 33 32 30 31 29
81 79 71 65 64 69 65 64 58 63 59 60 60 62 62 55 46 44 36 39 37 32 31 32 27 28 29 26 29 33 35 31 27 22 18 6 10 7 22 32 29 31 25
73 75 71 71 74 71 69 61 53 53 53 54 57 60 55 47 42 36 34 40 35 28 27 29 26 28 23 29 30 33 30 25 22 21 24 20 4 4 2 22 35 28 30
87 88 86 85 79 73 72 58 46 49 52 50 48 41 37 32 27 32 38 39 29 35 31 32 26 24 28 30 31 26 22 23 22 24 22 30 28 16 2 5 20 24 29
61 59 53 44 50 51 57 57 48 48 43 38 30 29 23 25 35 42 45 31 40 38 34 26 23 26 29 28 22 21 21 21 22 23 26 28 29 30 28 16 8 28 28
41 45 43 46 47 49 37 26 27 32 31 28 27 24 21 23 31 40 35 29 33 29 24 21 24 26 25 21 18 16 14 14 14 15 19 25 28 27 22 21 9 21 28
47 40 38 39 29 17 20 28 33 35 33 32 34 30 26 27 29 27 25 22 22 21 21 20 22 22 19 17 16 15 13 14 14 15 14 15 17 21 22 21 22 17 23
42 41 33 18 15 25 32 34 36 37 38 40 40 37 32 30 28 27 24 25 24 20 18 19 18 15 12 12 13 13 16 15 17 14 12 12 13 19 25 23 15 25 21
25 20 19 24 34 37 38 38 37 40 43 41 39 38 36 33 29 28 30 26 20 16 15 16 14 10 7 8 11 18 20 25 23 17 13 12 16 19 23 20 20 17 25
26 28 34 42 41 40 41 41 41 45 44 41 40 38 35 32 31 28 23 19 16 14 19 16 15 7 0 7 11 14 18 22 20 17 14 12 15 18 22 24 26 23 23
30 42 50 49 47 46 46 45 47 45 42 40 35 32 30 23 22 20 18 18 20 22 22 16 9 2 8 10 14 18 22 28 26 22 18 11 16 18 19 20 20 25 26
27 52 53 52 50 50 50 51 49 46 41 35 32 28 26 20 18 15 15 24 26 27 18 11 7 4 9 12 15 21 24 21 23 23 18 17 18 18 18 19 20 26 29
26 42 55 52 53 53 55 54 51 45 39 34 31 29 23 17 14 16 19 27 26 22 11 8 4 10 11 15 19 19 12 16 22 18 16 17 19 16 16 19 21 27 36
35 43 52 55 57 58 57 54 49 43 39 38 31 25 21 16 13 19 20 29 29 16 10 7 1 5 11 19 17 13 12 15 20 21 17 17 15 15 14 17 32 37 39
49 47 48 57 63 62 60 54 50 43 42 39 32 25 17 12 14 19 21 36 25 14 13 9 3 9 16 18 14 12 15 13 14 14 16 20 19 14 13 11 30 41 43
57 55 55 61 63 62 61 57 50 47 43 36 29 24 19 16 25 28 35 29 21 15 12 7 1 9 15 15 11 10 14 14 15 14 22 22 19 21 22 27 35 35 41
55 55 56 59 58 60 57 52 50 49 39 30 25 20 18 22 28 31 29 26 20 16 12 9 2 8 13 12 10 11 13 13 15 11 12 23 27 21 24 36 47 43 38
49 51 53 55 55 56 52 50 52 45 36 29 24 22 20 24 27 29 29 26 17 18 13 7 2 7 8 9 10 12 10 13 18 17 16 17 24 27 34 43 47 46 43
39 48 51 52 52 53 51 52 49 42 32 26 23 22 19 26 24 23 23 19 16 12 13 9 5 3 3 7 10 11 10 21 21 19 17 23 26 21 40 48 49 53 45
25 44 50 54 51 53 54 51 46 41 32 27 20 21 18 24 23 19 20 16 14 16 16 12 6 1 5 8 13 12 12 19 26 28 33 34 33 30 38 42 47 46 44
27 44 56 57 53 54 55 51 45 36 33 28 23 19 25 26 23 16 15 15 12 14 16 13 9 7 10 13 15 14 13 18 27 37 44 39 29 29 39 41 39 40 46
30 50 58 60 58 58 54 51 42 39 35 28 27 25 25 23 20 17 11 11 11 9 11 13 13 11 12 16 20 17 17 23 32 39 45 44 37 37 38 36 39 52 62
48 50 61 61 60 56 55 46 38 40 37 33 28 25 23 20 19 15 10 11 5 5 4 10 15 16 15 18 22 22 20 32 37 42 45 46 43 40 49 49 44 54 59
41 53 63 60 60 52 52 48 40 42 40 34 33 28 24 19 13 14 12 8 8 9 9 6 9 14 13 18 16 18 19 36 41 44 45 46 46 43 42 43 39 43 48
25 42 53 58 56 51 50 49 43 41 43 37 34 32 27 23 16 12 17 16 11 12 12 13 11 14 17 18 19 20 18 28 42 45 45 41 42 43 44 43 45 41 41
Wind_Direction_500mb
275 279 282 282 289 289 288 289 282 282 269 249 247 239 237 242 247 252 257 257 237 224 226 228 223 209 216 244 257 259 260 276 282 279 275 274 265 258 253 246 236 233 237
277 277 276 278 277 290 288 286 286 276 263 247 249 240 243 243 246 254 252 233 216 220 219 204 202 208 221 243 257 263 271 276 278 270 274 281 268 253 246 238 226 230 238
270 274 272 269 276 286 286 287 276 269 258 249 244 238 239 242 244 238 224 213 212 214 198 198 203 214 232 256 267 275 277 278 271 257 235 232 238 265 233 223 225 225 228
266 267 269 272 277 281 284 288 275 257 251 242 241 242 243 244 246 230 207 202 204 195 201 203 210 224 256 267 277 277 272 265 257 245 229 222 214 222 156 215 228 228 236
263 267 270 273 277 273 276 274 269 245 241 240 236 236 240 238 225 194 195 191 187 195 199 205 215 243 263 271 277 269 264 260 252 244 237 228 228 231 170 139 229 236 224
268 270 274 271 277 277 276 271 249 235 229 220 220 218 208 194 183 180 180 189 177 186 196 201 236 251 265 271 262 256 257 256 251 241 238 235 233 237 243 242 208 212 213
274 276 276 278 282 283 263 235 209 196 184 182 179 173 174 186 184 180 180 181 177 188 203 214 243 259 263 245 251 252 244 246 248 246 243 239 237 237 236 229 184 185 194
274 282 273 279 278 235 184 166 159 160 160 155 154 158 163 171 173 175 173 175 185 197 207 230 251 251 227 233 248 247 245 245 246 239 237 240 231 223 212 208 220 180 170
292 260 257 250 190 160 153 154 156 156 150 152 155 156 162 162 163 164 171 177 185 198 231 237 228 206 224 233 239 244 245 248 247 242 237 236 219 215 209 213 224 209 177
264 213 190 168 152 154 154 155 155 152 152 155 155 153 156 159 168 176 174 179 195 214 224 189 181 181 208 248 259 251 248 242 241 231 231 226 217 216 209 209 201 220 221
189 171 163 156 155 155 155 153 154 151 151 152 151 152 156 158 163 173 183 194 197 191 167 163 151 148 145 294 276 261 237 232 215 223 219 221 207 208 206 213 213 221 211
169 159 157 155 156 155 158 156 153 150 148 148 148 150 151 157 170 176 187 190 173 161 155 144 142 110 335 323 296 278 247 240 234 210 218 224 199 197 206 204 215 210 203
164 158 156 158 157 160 161 158 156 152 151 151 148 144 142 130 146 150 157 164 160 158 150 139 88 33 335 325 306 290 279 245 226 206 217 218 206 205 212 222 220 194 190
166 166 159 162 162 163 163 160 158 156 153 149 139 138 140 140 143 150 151 158 160 161 153 127 94 329 337 338 324 309 280 194 190 190 199 211 217 227 232 224 210 192 180
175 175 169 166 166 165 164 164 162 159 153 146 141 143 157 160 156 158 164 166 161 155 134 134 54 21 7 357 351 31 125 159 184 203 213 207 207 205 217 215 191 184 180
178 184 182 170 169 169 168 168 165 159 152 160 169 174 167 170 168 163 169 161 159 153 160 161 80 20 12 10 19 72 106 125 172 207 197 184 182 192 174 170 177 187 190
186 187 183 180 174 174 172 170 166 162 165 178 184 182 179 181 169 158 154 160 159 167 178 189 91 13 6 15 41 95 115 115 117 148 175 185 166 155 147 144 166 176 179
191 187 184 186 178 173 172 169 169 173 182 190 194 184 169 172 168 174 173 178 175 181 181 211 276 1 8 22 64 97 124 127 121 118 170 177 166 154 152 145 153 161 172
194 189 188 188 180 173 171 170 174 183 189 196 196 186 168 165 157 162 173 177 175 181 201 221 249 352 17 46 87 102 126 122 118 124 146 153 153 155 158 153 149 152 156
199 192 190 187 183 178 171 170 177 188 196 188 189 183 172 171 168 173 179 186 193 200 207 216 250 354 59 82 99 101 106 130 125 121 129 140 145 157 164 157 152 148 155
194 198 191 187 178 176 175 178 185 193 186 183 186 181 169 168 168 178 192 205 211 211 213 214 220 271 142 116 114 99 99 130 129 118 119 119 119 131 157 157 158 150 147
196 207 192 188 179 179 179 184 186 180 184 182 176 167 162 166 179 188 193 208 221 207 208 201 191 188 156 142 128 115 102 133 135 124 122 119 120 134 145 148 153 145 145
215 209 199 192 194 191 188 188 186 189 194 187 178 157 159 178 193 200 212 218 190 189 202 194 182 179 162 150 142 135 119 133 138 132 128 122 121 127 138 146 144 148 150
206 204 205 198 198 198 199 194 187 190 195 193 184 169 168 181 201 209 236 218 176 170 170 181 185 177 166 162 154 151 138 142 145 142 136 134 127 130 136 142 145 150 157
198 204 207 201 200 197 203 198 192 190 196 194 196 188 181 188 204 203 185 159 119 94 67 96 156 170 169 165 157 159 150 154 155 151 146 144 146 148 148 153 148 161 172
184 202 210 205 200 198 201 196 191 191 194 200 203 200 194 191 193 186 168 151 131 118 99 89 106 143 149 152 152 158 155 158 163 161 162 164 161 162 165 165 169 171 177
Wind_Speed_850mb
89 91 86 79 66 65 63 50 54 52 51 55 61 67 71 73 73 70 56 47 40 37 43 47 45 29 33 29 27 29 36 37 35 38 38 36 34 36 37 35 34 32 29
85 83 78 67 70 66 56 55 52 49 50 58 61 64 63 71 71 48 39 34 37 40 34 30 35 32 32 30 30 32 35 36 33 31 29 19 22 33 33 32 30 31 29
81 79 71 65 64 69 65 64 58 63 59 60 60 62 62 55 46 44 36 39 37 32 31 32 27 28 29 26 29 33 35 31 27 22 18 6 10 7 22 32 29 31 25
73 75 71 71 74 71 69 61 53 53 53 54 57 60 55 47 42 36 34 40 35 28 27 29 26 28 23 29 30 33 30 25 22 21 24 20 4 4 2 22 35 28 30
87 88 86 85 79 73 72 58 46 49 52 50 48 41 37 32 27 32 38 39 29 35 31 32 26 24 28 30 31 26 22 23 22 24 22 30 28 16 2 5 20 24 29
61 59 53 44 50 51 57 57 48 48 43 38 30 29 23 25 35 42 45 31 40 38 34 26 23 26 29 28 22 21 21 21 22 23 26 28 29 30 28 16 8 28 28
41 45 43 46 47 49 37 26 27 32 31 28 27 24 21 23 31 40 35 29 33 29 24 21 24 26 25 21 18 16 14 14 14 15 19 25 28 27 22 21 9 21 28
47 40 38 39 29 17 20 28 33 35 33 32 34 30 26 27 29 27 25 22 22 21 21 20 22 22 19 17 16 15 13 14 14 15 14 15 17 21 22 21 22 17 23
42 41 33 18 15 25 32 34 36 37 38 40 40 37 32 30 28 27 24 25 24 20 18 19 18 15 12 12 13 13 16 15 17 14 12 12 13 19 25 23 15 25 21
25 20 19 24 34 37 38 38 37 40 43 41 39 38 36 33 29 28 30 26 20 16 15 16 14 10 7 8 11 18 20 25 23 17 13 12 16 19 23 20 20 17 25
26 28 34 42 41 40 41 41 41 45 44 41 40 38 35 32 31 28 23 19 16 14 19 16 15 7 0 7 11 14 18 22 20 17 14 12 15 18 22 24 26 23 23
30 42 50 49 47 46 46 45 47 45 42 40 35 32 30 23 22 20 18 18 20 22 22 16 9 2 8 10 14 18 22 28 26 22 18 11 16 18 19 20 20 25 26
27 52 53 52 50 50 50 51 49 46 41 35 32 28 26 20 18 15 15 24 26 27 18 11 7 4 9 12 15 21 24 21 23 23 18 17 18 18 18 19 20 26 29
26 42 55 52 53 53 55 54 51 45 39 34 31 29 23 17 14 16 19 27 26 22 11 8 4 10 11 15 19 19 12 16 22 18 16 17 19 16 16 19 21 27 36
35 43 52 55 57 58 57 54 49 43 39 38 31 25 21 16 13 19 20 29 29 16 10 7 1 5 11 19 17 13 12 15 20 21 17 17 15 15 14 17 32 37 39
49 47 48 57 63 62 60 54 50 43 42 39 32 25 17 12 14 19 21 36 25 14 13 9 3 9 16 18 14 12 15 13 14 14 16 20 19 14 13 11 30 41 43
57 55 55 61 63 62 61 57 50 47 43 36 29 24 19 16 25 28 35 29 21 15 12 7 1 9 15 15 11 10 14 14 15 14 22 22 19 21 22 27 35 35 41
55 55 56 59 58 60 57 52 50 49 39 30 25 20 18 22 28 31 29 26 20 16 12 9 2 8 13 12 10 11 13 13 15 11 12 23 27 21 24 36 47 43 38
49 51 53 55 55 56 52 50 52 45 36 29 24 22 20 24 27 29 29 26 17 18 13 7 2 7 8 9 10 12 10 13 18 17 16 17 24 27 34 43 47 46 43
39 48 51 52 52 53 51 52 49 42 32 26 23 22 19 26 24 23 23 19 16 12 13 9 5 3 3 7 10 11 10 21 21 19 17 23 26 21 40 48 49 53 45
25 44 50 54 51 53 54 51 46 41 32 27 20 21 18 24 23 19 20 16 14 16 16 12 6 1 5 8 13 12 12 19 26 28 33 34 33 30 38 42 47 46 44
27 44 56 57 53 54 55 51 45 36 33 28 23 19 25 26 23 16 15 15 12 14 16 13 9 7 10 13 15 14 13 18 27 37 44 39 29 29 39 41 39 40 46
30 50 58 60 58 58 54 51 42 39 35 28 27 25 25 23 20 17 11 11 11 9 11 13 13 11 12 16 20 17 17 23 32 39 45 44 37 37 38 36 39 52 62
48 50 61 61 60 56 55 46 38 40 37 33 28 25 23 20 19 15 10 11 5 5 4 10 15 16 15 18 22 22 20 32 37 42 45 46 43 40 49 49 44 54 59
41 53 63 60 60 52 52 48 40 42 40 34 33 28 24 19 13 14 12 8 8 9 9 6 9 14 13 18 16 18 19 36 41 44 45 46 46 43 42 43 39 43 48
25 42 53 58 56 51 50 49 43 41 43 37 34 32 27 23 16 12 17 16 11 12 12 13 11 14 17 18 19 20 18 28 42 45 45 41 42 43 44 43 45 41 41
Wind_Direction_850mb
275 279 282 282 289 289 288 289 282 282 269 249 247 239 237 242 247 252 257 257 237 224 226 228 223 209 216 244 257 259 260 276 282 279 275 274 265 258 253 246 236 233 237
277 277 276 278 277 290 288 286 286 276 263 247 249 240 243 243 246 254 252 233 216 220 219 204 202 208 221 243 257 263 271 276 278 270 274 281 268 253 246 238 226 230 238
270 274 272 269 276 286 286 287 276 269 258 249 244 238 239 242 244 238 224 213 212 214 198 198 203 214 232 256 267 275 277 278 271 257 235 232 238 265 233 223 225 225 228
266 267 269 272 277 281 284 288 275 257 251 242 241 242 243 244 246 230 207 202 204 195 201 203 210 224 256 267 277 277 272 265 257 245 229 222 214 222 156 215 228 228 236
263 267 270 273 277 273 276 274 269 245 241 240 236 236 240 238 225 194 195 191 187 195 199 205 215 243 263 271 277 269 264 260 252 244 237 228 228 231 170 139 229 236 224
268 270 274 271 277 277 276 271 249 235 229 220 220 218 208 194 183 180 180 189 177 186 196 201 236 251 265 271 262 256 257 256 251 241 238 235 233 237 243 242 208 212 213
274 276 276 278 282 283 263 235 209 196 184 182 179 173 174 186 184 180 180 181 177 188 203 214 243 259 263 245 251 252 244 246 248 246 243 239 237 237 236 229 184 185 194
274 282 273 279 278 235 184 166 159 160 160 155 154 158 163 171 173 175 173 175 185 197 207 230 251 251 227 233 248 247 245 245 246 239 237 240 231 223 212 208 220 180 170
292 260 257 250 190 160 153 154 156 156 150 152 155 156 162 162 163 164 171 177 185 198 231 237 228 206 224 233 239 244 245 248 247 242 237 236 219 215 209 213 224 209 177
264 213 190 168 152 154 154 155 155 152 152 155 155 153 156 159 168 176 174 179 195 214 224 189 181 181 208 248 259 251 248 242 241 231 231 226 217 216 209 209 201 220 221
189 171 163 156 155 155 155 153 154 151 151 152 151 152 156 158 163 173 183 194 197 191 167 163 151 148 145 294 276 261 237 232 215 223 219 221 207 208 206 213 213 221 211
169 159 157 155 156 155 158 156 153 150 148 148 148 150 151 157 170 176 187 190 173 161 155 144 142 110 335 323 296 278 247 240 234 210 218 224 199 197 206 204 215 210 203
164 158 156 158 157 160 161 158 156 152 151 151 148 144 142 130 146 150 157 164 160 158 150 139 88 33 335 325 306 290 279 245 226 206 217 218 206 205 212 222 220 194 190
166 166 159 162 162 163 163 160 158 156 153 149 139 138 140 140 143 150 151 158 160 161 153 127 94 329 337 338 324 309 280 194 190 190 199 211 217 227 232 224 210 192 180
175 175 169 166 166 165 164 164 162 159 153 146 141 143 157 160 156 158 164 166 161 155 134 134 54 21 7 357 351 31 125 159 184 203 213 207 207 205 217 215 191 184 180
178 184 182 170 169 169 168 168 165 159 152 160 169 174 167 170 168 163 169 161 159 153 160 161 80 20 12 10 19 72 106 125 172 207 197 184 182 192 174 170 177 187 190
186 187 183 180 174 174 172 170 166 162 165 178 184 182 179 181 169 158 154 160 159 167 178 189 91 13 6 15 41 95 115 115 117 148 175 185 166 155 147 144 166 176 179
191 187 184 186 178 173 172 169 169 173 182 190 194 184 169 172 168 174 173 178 175 181 181 211 276 1 8 22 64 97 124 127 121 118 170 177 166 154 152 145 153 161 172
194 189 188 188 180 173 171 170 174 183 189 196 196 186 168 165 157 162 173 177 175 181 201 221 249 352 17 46 87 102 126 122 118 124 146 153 153 155 158 153 149 152 156
199 192 190 187 183 178 171 170 177 188 196 188 189 183 172 171 168 173 179 186 193 200 207 216 250 354 59 82 99 101 106 130 125 121 129 140 145 157 164 157 152 148 155
194 198 191 187 178 176 175 178 185 193 186 183 186 181 169 168 168 178 192 205 211 211 213 214 220 271 142 116 114 99 99 130 129 118 119 119 119 131 157 157 158 150 147
196 207 192 188 179 179 179 184 186 180 184 182 176 167 162 166 179 188 193 208 221 207 208 201 191 188 156 142 128 115 102 133 135 124 122 119 120 134 145 148 153 145 145
215 209 199 192 194 191 188 188 186 189 194 187 178 157 159 178 193 200 212 218 190 189 202 194 182 179 162 150 142 135 119 133 138 132 128 122 121 127 138 146 144 148 150
206 204 205 198 198 198 199 194 187 190 195 193 184 169 168 181 201 209 236 218 176 170 170 181 185 177 166 162 154 151 138 142 145 142 136 134 127 130 136 142 145 150 157
198 204 207 201 200 197 203 198 192 190 196 194 196 188 181 188 204 203 185 159 119 94 67 96 156 170 169 165 157 159 150 154 155 151 146 144 146 148 148 153 148 161 172
184 202 210 205 200 198 201 196 191 191 194 200 203 200 194 191 193 186 168 151 131 118 99 89 106 143 149 152 152 158 155 158 163 161 162 164 161 162 165 165 169 171 177